• In Uzbekistan
  • List of Countries
  • For 7 days
  • Water Temperature
  • Satellite Maps
  • Weather Map
  • Weather Widgets
  • user-avatar
    Login

    Hourly Weather Artashat

    Today, 25 March, Saturday

    Time Temperature Precipitation Wind Pressure Humidity
    00:00 -4°C° 0 mm 1 mps 599 mmHg 70%
    01:00 -4°C° 0 mm 1 mps 599 mmHg 71%
    02:00 -6°C° 0 mm 1 mps 599 mmHg 72%
    03:00 -7°C° 0 mm 1 mps 598 mmHg 74%
    04:00 -7°C° 0 mm 1 mps 597 mmHg 75%
    05:00 -8°C° 0 mm 1 mps 597 mmHg 76%
    06:00 -8°C° 0 mm 1 mps 597 mmHg 77%
    07:00 -4°C° 0 mm 1 mps 598 mmHg 72%
    08:00 -1°C° 0 mm 1 mps 599 mmHg 67%
    09:00 +2°C° 0 mm 1 mps 600 mmHg 59%
    10:00 +2°C° 0 mm 1 mps 600 mmHg 59%
    11:00 +3°C° 0 mm 1 mps 600 mmHg 59%
    12:00 +4°C° 0 mm 1 mps 600 mmHg 58%
    13:00 +5°C° 0 mm 1 mps 600 mmHg 57%
    14:00 +5°C° 0 mm 1 mps 600 mmHg 57%
    15:00 +5°C° 0 mm 1 mps 599 mmHg 56%
    16:00 +4°C° 0 mm 1 mps 598 mmHg 58%
    17:00 +2°C° 0 mm 1 mps 597 mmHg 60%
    18:00 -1°C° 0 mm 0 mps 597 mmHg 62%
    19:00 -1°C° 0 mm 1 mps 596 mmHg 63%
    20:00 -2°C° 0 mm 1 mps 596 mmHg 65%
    21:00 -3°C° 0 mm 1 mps 596 mmHg 66%
    22:00 -3°C° 0 mm 1 mps 596 mmHg 66%
    23:00 -3°C° 0 mm 1 mps 596 mmHg 66%

    Tomorrow, 26 March, Sunday

    Time Temperature Precipitation Wind Pressure Humidity
    00:00 -3°C° 0 mm 1 mps 596 mmHg 66%
    01:00 -3°C° 0 mm 1 mps 596 mmHg 65%
    02:00 -4°C° 0 mm 1 mps 596 mmHg 65%
    03:00 -4°C° 0 mm 1 mps 596 mmHg 64%
    04:00 -4°C° 0 mm 1 mps 596 mmHg 62%
    05:00 -4°C° 0 mm 1 mps 596 mmHg 61%
    06:00 -4°C° 0 mm 1 mps 596 mmHg 59%
    07:00 -2°C° 0 mm 1 mps 597 mmHg 55%
    08:00 0°C° 0 mm 1 mps 598 mmHg 52%
    09:00 +2°C° 0 mm 1 mps 599 mmHg 48%
    10:00 +4°C° 0 mm 1 mps 599 mmHg 50%
    11:00 +5°C° 0 mm 1 mps 599 mmHg 51%
    12:00 +6°C° 0 mm 1 mps 599 mmHg 52%
    13:00 +6°C° 0 mm 1 mps 599 mmHg 51%
    14:00 +6°C° 0 mm 1 mps 599 mmHg 51%
    15:00 +6°C° 0 mm 2 mps 599 mmHg 50%
    16:00 +4°C° 0 mm 2 mps 599 mmHg 52%
    17:00 +3°C° 0 mm 2 mps 599 mmHg 53%
    18:00 +2°C° 0 mm 2 mps 598 mmHg 55%
    19:00 +1°C° 0 mm 2 mps 599 mmHg 55%
    20:00 -1°C° 0 mm 2 mps 599 mmHg 56%
    21:00 -2°C° 0 mm 2 mps 599 mmHg 56%
    22:00 -2°C° 0 mm 2 mps 599 mmHg 57%
    23:00 -3°C° 0 mm 2 mps 599 mmHg 57%

    Day after tomorrow, 27 March, Monday

    Time Temperature Precipitation Wind Pressure Humidity
    00:00 -3°C° 0 mm 2 mps 598 mmHg 58%
    01:00 -3°C° 0 mm 2 mps 598 mmHg 58%
    02:00 -3°C° 0 mm 2 mps 598 mmHg 59%
    03:00 -4°C° 0 mm 2 mps 598 mmHg 60%
    04:00 -4°C° 0 mm 2 mps 598 mmHg 61%
    05:00 -4°C° 0 mm 2 mps 598 mmHg 61%
    06:00 -4°C° 0 mm 2 mps 598 mmHg 62%
    07:00 -2°C° 0 mm 2 mps 598 mmHg 59%
    08:00 +1°C° 0 mm 2 mps 599 mmHg 56%
    09:00 +3°C° 0 mm 2 mps 600 mmHg 54%
    10:00 +4°C° 0 mm 2 mps 600 mmHg 53%
    11:00 +5°C° 0 mm 2 mps 600 mmHg 53%
    12:00 +6°C° 0 mm 2 mps 600 mmHg 53%
    13:00 +6°C° 0 mm 2 mps 600 mmHg 52%
    14:00 +7°C° 0 mm 3 mps 600 mmHg 51%
    15:00 +7°C° 0 mm 3 mps 599 mmHg 49%
    16:00 +5°C° 0 mm 3 mps 599 mmHg 53%
    17:00 +5°C° 0 mm 2 mps 599 mmHg 56%
    18:00 +4°C° 0 mm 2 mps 598 mmHg 59%
    19:00 +3°C° 0 mm 2 mps 598 mmHg 61%
    20:00 +2°C° 0 mm 2 mps 598 mmHg 62%
    21:00 +1°C° 0 mm 2 mps 598 mmHg 64%
    22:00 +1°C° 0 mm 2 mps 598 mmHg 65%
    23:00 +1°C° 0 mm 2 mps 598 mmHg 66%

    28 March, Tuesday

    Time Temperature Precipitation Wind Pressure Humidity
    00:00 -1°C° 0 mm 2 mps 598 mmHg 67%
    01:00 -1°C° 0 mm 2 mps 597 mmHg 67%
    02:00 -1°C° 0 mm 2 mps 597 mmHg 68%
    03:00 -2°C° 0 mm 2 mps 597 mmHg 68%
    04:00 -2°C° 0 mm 2 mps 597 mmHg 68%
    05:00 -2°C° 0 mm 2 mps 597 mmHg 68%
    06:00 -2°C° 0 mm 2 mps 597 mmHg 68%
    07:00 -1°C° 0 mm 2 mps 597 mmHg 64%
    08:00 +2°C° 0 mm 2 mps 598 mmHg 60%
    09:00 +4°C° 0 mm 2 mps 598 mmHg 57%
    10:00 +5°C° 0 mm 2 mps 599 mmHg 55%
    11:00 +6°C° 0 mm 2 mps 599 mmHg 53%
    12:00 +7°C° 0 mm 2 mps 599 mmHg 51%
    13:00 +7°C° 0 mm 2 mps 599 mmHg 50%
    14:00 +7°C° 0 mm 2 mps 599 mmHg 50%
    15:00 +7°C° 0 mm 3 mps 599 mmHg 49%
    16:00 +6°C° 0 mm 2 mps 599 mmHg 52%
    17:00 +5°C° 0 mm 2 mps 599 mmHg 55%
    18:00 +4°C° 0 mm 2 mps 598 mmHg 58%
    19:00 +3°C° 0 mm 2 mps 599 mmHg 61%
    20:00 +2°C° 0 mm 2 mps 599 mmHg 63%
    21:00 +1°C° 0 mm 2 mps 599 mmHg 65%
    22:00 +1°C° 0 mm 2 mps 599 mmHg 66%
    23:00 +1°C° 0 mm 2 mps 599 mmHg 67%

    29 March, Wednesday

    Time Temperature Precipitation Wind Pressure Humidity
    00:00 -1°C° 0 mm 2 mps 599 mmHg 68%
    01:00 -1°C° 0 mm 2 mps 598 mmHg 69%
    02:00 -1°C° 0 mm 2 mps 598 mmHg 70%
    03:00 -2°C° 0 mm 2 mps 598 mmHg 71%
    04:00 -2°C° 0 mm 2 mps 598 mmHg 72%
    05:00 -2°C° 0 mm 2 mps 598 mmHg 73%
    06:00 -2°C° 0 mm 2 mps 598 mmHg 73%
    07:00 +1°C° 0 mm 1 mps 599 mmHg 69%
    08:00 +3°C° 0 mm 1 mps 599 mmHg 64%
    09:00 +5°C° 0 mm 1 mps 600 mmHg 60%
    10:00 +6°C° 0 mm 1 mps 601 mmHg 57%
    11:00 +7°C° 0 mm 1 mps 601 mmHg 55%
    12:00 +8°C° 0 mm 1 mps 601 mmHg 52%
    13:00 +7°C° 0 mm 2 mps 601 mmHg 51%
    14:00 +7°C° 0 mm 2 mps 601 mmHg 50%
    15:00 +8°C° 0 mm 2 mps 601 mmHg 50%
    16:00 +7°C° 0 mm 2 mps 600 mmHg 52%
    17:00 +6°C° 0 mm 2 mps 600 mmHg 55%
    18:00 +5°C° 0 mm 2 mps 600 mmHg 58%
    19:00 +4°C° 0 mm 2 mps 600 mmHg 61%
    20:00 +3°C° 0 mm 2 mps 600 mmHg 63%
    21:00 +2°C° 0 mm 2 mps 600 mmHg 66%
    22:00 +1°C° 0 mm 2 mps 600 mmHg 67%
    23:00 +2°C° 0 mm 1 mps 600 mmHg 68%

    30 March, Thursday

    Time Temperature Precipitation Wind Pressure Humidity
    00:00 +1°C° 0 mm 1 mps 600 mmHg 69%
    01:00 +1°C° 0 mm 1 mps 600 mmHg 70%
    02:00 0°C° 0 mm 1 mps 600 mmHg 71%
    03:00 0°C° 0 mm 1 mps 600 mmHg 72%
    04:00 0°C° 0 mm 1 mps 600 mmHg 72%
    05:00 0°C° 0 mm 1 mps 600 mmHg 73%
    06:00 -1°C° 0 mm 1 mps 600 mmHg 74%
    07:00 +1°C° 0 mm 1 mps 601 mmHg 68%
    08:00 +3°C° 0 mm 1 mps 601 mmHg 62%
    09:00 +5°C° 0 mm 1 mps 602 mmHg 56%
    10:00 +6°C° 0 mm 1 mps 602 mmHg 54%
    11:00 +7°C° 0 mm 1 mps 602 mmHg 52%
    12:00 +7°C° 0 mm 2 mps 602 mmHg 50%
    13:00 +8°C° 0 mm 2 mps 602 mmHg 48%
    14:00 +8°C° 0 mm 2 mps 602 mmHg 47%
    15:00 +8°C° 0 mm 2 mps 602 mmHg 45%
    16:00 +7°C° 0 mm 2 mps 601 mmHg 48%
    17:00 +6°C° 0 mm 2 mps 601 mmHg 51%
    18:00 +6°C° 0 mm 2 mps 601 mmHg 53%
    19:00 +5°C° 0 mm 2 mps 601 mmHg 56%
    20:00 +4°C° 0 mm 2 mps 600 mmHg 59%
    21:00 +3°C° 0 mm 2 mps 600 mmHg 62%
    22:00 +2°C° 0 mm 2 mps 600 mmHg 63%
    23:00 +2°C° 0 mm 2 mps 600 mmHg 64%
    Show more